Weather History for Copper Harbor, MI

Change the Weather History Date:

Thursday, May 16, 2013

  Actual Average Record
Temperature  
Mean Temperature 44 °F -  
Max Temperature 48 °F 53 °F 72 °F (1998)
Min Temperature 39 °F 37 °F 32 °F (1997)
Degree Days  
Heating Degree Days 22    
Moisture  
Dew Point 36 °F    
Average Humidity 75    
Maximum Humidity 83    
Minimum Humidity 66    
Precipitation  
Precipitation 0.00 in - - ()
Sea Level Pressure  
Sea Level Pressure 30.00 in    
Wind  
Wind Speed 5 mph (NNW)    
Max Wind Speed 14 mph    
Max Gust Speed -    
Averages and records for this station are not official NWS values.
T = Trace of Precipitation, MM = Missing Value Source: NWS Daily Summary

Daily Weather History Graph

Daily Weather History Graph

Search for Another Location

Airport:

Trip Planner

Search our weather history database for the weather conditions in past years. The results will help you decide how hot, cold, wet, or windy it might be!

Date:

Astronomy

May. 16, 2013 Rise Set
Actual Time 6:13 AM EDT 9:23 PM EDT
Civil Twilight 5:36 AM EDT 10:00 PM EDT
Nautical Twilight 4:48 AM EDT 10:48 PM EDT
Astronomical Twilight 3:49 AM EDT 11:48 PM EDT
Moon 11:53 AM EDT (5/16) 1:37 AM EDT (5/16)
Length of Visible Light 16h 23m
Length of Day
15h 10m
Waxing Crescent, 35% of the Moon is Illuminated
May 16
Waxing Crescent
May 18
First Quarter
May 25
Full
May 31
Last Quarter
Jun 8
New

Hourly Weather History & Observations

Time (EDT) Temp. Windchill Dew Point Humidity Pressure Visibility Wind Dir Wind Speed Gust Speed Precip Events Conditions
12:51 AM 46.9 °F - 36.0 °F 66% 29.79 in - Calm Calm - N/A   Unknown
1:51 AM 43.0 °F - 35.1 °F 74% 29.81 in - Calm Calm - N/A   Unknown
2:51 AM 42.1 °F 40.2 °F 36.0 °F 79% 29.83 in - NNW 3.5 mph - N/A   Unknown
3:51 AM 43.0 °F 41.3 °F 36.0 °F 76% 29.85 in - NNW 3.5 mph - N/A   Unknown
4:51 AM 44.1 °F 38.6 °F 37.0 °F 76% 29.87 in - North 10.4 mph - N/A   Unknown
5:51 AM 42.1 °F 35.7 °F 36.0 °F 79% 29.91 in - North 11.5 mph - N/A   Unknown
6:51 AM 42.1 °F 35.7 °F 36.0 °F 79% 29.94 in - North 11.5 mph - N/A   Unknown
7:51 AM 42.1 °F 35.7 °F 36.0 °F 79% 29.95 in - North 11.5 mph - N/A   Unknown
8:51 AM 42.1 °F 35.2 °F 36.0 °F 79% 29.98 in - North 12.7 mph - N/A   Unknown
9:51 AM 43.0 °F 36.0 °F 36.0 °F 76% 30.01 in - North 13.8 mph - N/A   Unknown
10:51 AM 43.0 °F 37.2 °F 36.0 °F 76% 30.03 in - North 10.4 mph - N/A   Unknown
11:51 AM 43.0 °F 37.2 °F 36.0 °F 76% 30.04 in - North 10.4 mph - N/A   Unknown
12:51 PM 44.1 °F 39.0 °F 37.0 °F 76% 30.06 in - North 9.2 mph - N/A   Unknown
1:51 PM 46.0 °F 41.0 °F 37.0 °F 71% 30.06 in - North 10.4 mph - N/A   Unknown
2:51 PM 46.9 °F - 37.0 °F 68% 30.07 in - North 9.2 mph - N/A   Unknown
3:51 PM 46.9 °F - 37.0 °F 68% 30.07 in - North 9.2 mph - N/A   Unknown
4:51 PM 46.0 °F - 36.0 °F 68% 30.07 in - Calm Calm - N/A   Unknown
5:51 PM 46.0 °F 44.8 °F 37.0 °F 71% 30.08 in - NE 3.5 mph - N/A   Unknown
6:51 PM 46.0 °F - 36.0 °F 68% 30.08 in - Calm Calm - N/A   Unknown
7:51 PM 46.9 °F - 37.9 °F 71% 30.09 in - Calm Calm - N/A   Unknown
8:51 PM 44.1 °F - 37.9 °F 79% 30.10 in - Calm Calm - N/A   Unknown
9:51 PM 42.1 °F 40.2 °F 37.0 °F 82% 30.11 in - SW 3.5 mph - N/A   Unknown
10:51 PM 41.0 °F 39.0 °F 36.0 °F 82% 30.11 in - SW 3.5 mph - N/A   Unknown
11:51 PM 39.9 °F 36.7 °F 35.1 °F 83% 30.11 in - SW 4.6 mph - N/A   Unknown